Regional Weather Roundup
Issued by NWS

Home | Current Version | Previous Version | Text Only | Print | Product List | Glossary Off
Versions: 1 2 3 4 5 6 7 8 9 10 11 12 13 14 15 16 17 18 19 20 21 22 23 24 25 26 27 28 29 30 31 32 33 34 35 36 37 38 39 40 41 42 43 44 45 46 47 48 49 50

000
ASUS43 KOAX 011710
RWRNE

WEATHER ROUNDUP FOR NEBRASKA
NATIONAL WEATHER SERVICE OMAHA NE
1200 PM CDT MON SEP 01 2014

NOTES: SATELLITE DATA IS BEING USED TO AUGMENT CLOUD COVER ABOVE
       12000 FEET.
       "FAIR" INDICATES FEW OR NO CLOUDS BELOW 12,000 FEET WITH NO
       SIGNIFICANT WEATHER AND/OR OBSTRUCTIONS TO VISIBILITY.

  * THESE STATIONS DO NOT REPORT WEATHER SUCH AS RAIN...SNOW OR FOG.

NEZ001>004-019>022-054>056-011800-
NEBRASKA PANHANDLE

CITY           SKY/WX    TMP DP  RH WIND       PRES   REMARKS
SCOTTSBLUFF    MOSUNNY   69  51  52 VRB6      30.01F
ALLIANCE       MOSUNNY   69  45  41 S6        29.99F
CHADRON        MOSUNNY   71  49  45 SW12      29.96S
KIMBALL        MOSUNNY   66  46  48 SW5       30.05S
SIDNEY         PTSUNNY   69  48  47 SW8       30.05S
$$

NEZ057>060-069>072-079>082-011800-
SOUTHWEST NEBRASKA

CITY           SKY/WX    TMP DP  RH WIND       PRES   REMARKS
NORTH PLATTE   SUNNY     69  54  58 W5        29.99R
IMPERIAL       PTSUNNY   66  53  63 NW7       30.03R
LEXINGTON      SUNNY     71  57  60 W7        29.97S
MCCOOK         CLOUDY    67  56  67 NW6       30.00S
OGALLALA       MOSUNNY   67  52  59 W5        30.01S
$$

NEZ005>010-023>029-035>040-094-011800-
NORTH CENTRAL NEBRASKA

CITY           SKY/WX    TMP DP  RH WIND       PRES   REMARKS
VALENTINE      SUNNY     72  52  49 W9        29.93S
AINSWORTH      SUNNY     70  53  54 W8        29.94S
BROKEN BOW     SUNNY     71  56  58 W6        29.95S
O`NEILL        SUNNY     73  58  59 W13       29.91R
ORD            SUNNY     73  53  49 NW9       29.91S
THEDFORD       SUNNY     70  53  54 CALM      29.97S
$$

NEZ041-046>049-061>064-073>077-083>087-011800-
SOUTH CENTRAL NEBRASKA

CITY           SKY/WX    TMP DP  RH WIND       PRES   REMARKS
GRAND ISLAND   SUNNY     74  60  61 NW7       29.94R
AURORA         SUNNY     72  60  65 SW3       29.92F
HASTINGS       MOSUNNY   71  56  58 NW9       29.95R
HEBRON         PTSUNNY   67  58  74 W3        29.94R
HOLDREGE       MOSUNNY   69  54  60 CALM      29.97R
KEARNEY *      MOSUNNY   72  55  56 CALM      29.96S
YORK           SUNNY     72 N/A N/A W6        29.92S
$$

NEZ011>018-030>034-042>045-011800-
NORTHEAST NEBRASKA

CITY           SKY/WX    TMP DP  RH WIND       PRES   REMARKS
NORFOLK        SUNNY     74  61  63 NW9       29.88S
ALBION         SUNNY     73  59  61 W7        29.91R
BLAIR          PTSUNNY   71  63  73 W5        29.88S
FREMONT        MOSUNNY   74  61  65 W13       29.89R
TEKAMAH        CLOUDY    73  64  73 W8        29.87R
WAYNE          SUNNY     73  62  68 W5        29.88R
$$

NEZ050>053-065>068-078-088>093-011800-
SOUTHEAST NEBRASKA

CITY           SKY/WX    TMP DP  RH WIND       PRES   REMARKS
LINCOLN        MOSUNNY   77  61  57 W13       29.90R
OMAHA EPPLEY   MOSUNNY   75  61  61 W6        29.88R
BEATRICE       PTSUNNY   71  64  77 W7        29.91R
FALLS CITY     MOSUNNY   77  66  68 W6        29.88R
NEBRASKA CITY  MOSUNNY   72  64  74 W7        29.88S
PLATTSMOUTH    MOSUNNY   74  62  65 W5        29.88R
$$

NEZ044-045-051>053-067-011800-
OMAHA AREA

CITY           SKY/WX    TMP DP  RH WIND       PRES   REMARKS
OMAHA EPPLEY   MOSUNNY   75  61  61 W6        29.88R
BLAIR          PTSUNNY   71  63  73 W5        29.88S
FREMONT        MOSUNNY   74  61  65 W13       29.89R
MILLARD        MOSUNNY   74  63  68 W7        29.88R
OFFUTT AFB     SUNNY     74  65  74 W8        29.87R
PLATTSMOUTH    MOSUNNY   74  62  65 W5        29.88R
WAHOO          FAIR      74  59  58 W7        29.88S
$$


USA.gov is the U.S. government's official web portal to all federal, state and local government web resources and services.